Location: Austin
(30.3000°N, 97.7500°W)
Time: 01:08:42
(UTC-06:00)

Geosat - Pass Details

Date: 04 November 2025
Orbit: 758 x 760 km, 108.1° (Epoch: 15 November)

Event Time Altitude Azimuth Distance (km) Brightness Sun altitude
Rises 18:44:11 0° 146° (SE) 3,201 7.0 -14.1°
Reaches altitude 10° 18:46:29 10° 142° (SE) 2,280 6.2 -14.6°
Maximum altitude 18:51:21 60° 64° (ENE) 870 4.0 -15.6°
Drops below altitude 10° 18:56:15 10° 345° (NNW) 2,292 6.5 -16.7°
Sets 18:58:33 0° 342° (NNW) 3,221 7.4 -17.2°
